Location: Abbey Hill
(34.0751°N, 84.0688°W)
Time: 12:08:52
(UTC+00:00)

X-37B - Pass Details

Date: 25 September 2021
Orbit: 385 x 389 km, 45.0° (Epoch: 17 October)

Event Time Altitude Azimuth Distance (km) Brightness Sun altitude
Exits shadow 09:50:06 17° 354° (N) 1,057 2.8 -20.7°
Drops below altitude 10° 09:51:55 10° 29° (NNE) 1,413 4.0 -20.3°
Sets 09:54:27 0° 49° (NE) 2,270 5.5 -19.8°
